Regional Weather Roundup
Issued by NWS

Home | Current Version | Previous Version | Graphics & Text | Print | Product List | Glossary On
Versions: 1 2 3 4 5 6 7 8 9 10 11 12 13 14 15 16 17 18 19 20 21 22 23 24 25 26 27 28 29 30 31 32 33 34 35 36 37 38 39 40 41 42 43 44 45 46 47 48 49 50
000
ASUS45 KBOU 021107
RWRCO

WEATHER ROUNDUP FOR COLORADO
NATIONAL WEATHER SERVICE DENVER/BOULDER CO
500 AM MDT TUE SEP 02 2014

NOTE: "FAIR" INDICATES FEW OR NO CLOUDS BELOW 12000 FEET WITH NO
SIGNIFICANT WEATHER AND/OR OBSTRUCTIONS TO VISIBILITY.

COZ001>005-013-030-031-021200-
...NORTHWEST COLORADO...

CITY           SKY/WX    TMP DP  RH WIND       PRES   REMARKS
CRAIG          CLEAR     39  35  86 CALM      30.19F
HAYDEN         CLEAR     45  34  65 E10       30.19F
MEEKER         CLEAR     42  36  79 N5        30.19F
MOUNT WERNER   NOT AVBL
STEAMBOAT SPGS CLEAR     40  36  86 CALM      30.22S
WALDEN         CLEAR     36  32  87 CALM      30.26F
$$

COZ006>008-011-021200-
...WEST CENTRAL VALLEYS...

CITY           SKY/WX    TMP DP  RH WIND       PRES   REMARKS
GRAND JUNCTION CLEAR     56  40  55 SE10      30.08R
MONTROSE       CLEAR     52  39  61 S7        30.16S
EAGLE          CLEAR     43  36  75 E3        30.26S
RIFLE          CLEAR     48  39  71 CALM      30.15S
DELTA          CLEAR     56  38  51 SE6       30.13S
NUCLA          CLEAR     54  36  50 E6        30.19S
$$

COZ017>023-064>068-021200-
...SOUTHWEST COLORADO...

CITY           SKY/WX    TMP DP  RH WIND       PRES   REMARKS
DURANGO        CLEAR     47  33  58 CALM      30.19S
CORTEZ         CLEAR     48  38  68 NE6       30.15S
PAGOSA SPRINGS CLEAR     46  31  56 NW3       30.28R
TELLURIDE      CLEAR     48  34  57 E6        30.37S
WOLF CREEK PAS NOT AVBL
$$

COZ009-010-012-014-032>034-037-058>063-021200-
...CENTRAL COLORADO...

CITY           SKY/WX    TMP DP  RH WIND       PRES   REMARKS
ASPEN          CLEAR     44  31  60 SW9       30.27S
BUENA VISTA    CLEAR     45  29  55 SE3       30.28F
COPPER MTN     CLEAR     46  23  39 S12G20    30.52F
BERTHOUD PASS  FAIR      36  36 100 W20       30.53S
COTTONWOOD PAS CLEAR     55  21  26 NW10G17   30.37F
GUNNISON       PTCLDY    39  30  70 CALM      30.34S
KREMMLING      CLEAR     34  32  93 CALM      30.29S
LEADVILLE      CLEAR     33  27  78 N6        30.39S WCI  28
MONARCH PASS   CLEAR     43  27  52 W26       30.62S
SALIDA         CLEAR     47  33  59 CALM      30.34S
SUNLIGHT       CLEAR     45  32  61 CALM      30.45F
WILKERSON PASS NOT AVBL
$$

COZ069>075-021200-
...SAN LUIS VALLEY/SANGRE DE CRISTO MOUNTAINS...

CITY           SKY/WX    TMP DP  RH WIND       PRES   REMARKS
ALAMOSA        PTCLDY    42  31  64 S3        30.28R
LA VETA PASS   NOT AVBL
SAGUACHE       NOT AVBL
$$

COZ035-036-038>040-021200-
...NORTHERN COLORADO FRONT RANGE...

CITY           SKY/WX    TMP DP  RH WIND       PRES   REMARKS
DENVER INTL AP CLEAR     53  43  68 W5        30.14F
DMNS CITY PARK   N/A     51  46  82 S3        30.13F
AURORA         CLEAR     47  42  84 S7        30.15F
FRONT RANGE AP NOT AVBL
ERIE MUNI ARPT CLEAR     48  45  89 S5        30.13F
BOULDER MUN AP CLEAR     52  45  76 CALM      30.13F
CENTENNIAL     CLEAR     49  42  77 S6        30.16F
BROOMFIELD     CLEAR     54  43  66 W3        30.15F
FORT COLLINS   CLEAR     52  45  76 CALM      30.14S
LONGMONT       CLEAR     49  44  85 CALM      30.15S
$$

COZ041-046-047-076>085-087-088-021200-
...PIKES PEAK/PALMER DIVIDE AND SOUTHERN FOOTHILLS...

CITY           SKY/WX    TMP DP  RH WIND       PRES   REMARKS
COLO. SPRINGS  MOCLDY    58  52  80 CALM      30.19S
A. F. ACADEMY  CLEAR     47  42  82 N6        30.20S
ELLICOTT       CLOUDY    60  52  74 CALM      30.17S
FALCON         MOCLDY    52  51  95 SW5       30.22S
FORT CARSON    MOCLDY    56  46  69 N7        30.17R
LIMON          CLEAR     51  46  83 NW7       30.14S
MONUMENT HILL  CLEAR     43  39  87 SW8       30.21S
TRINIDAD       CLEAR     53  40  61 W5        30.15R
$$

COZ042>045-048>051-090-091-021200-
...NORTHEAST COLORADO...

CITY           SKY/WX    TMP DP  RH WIND       PRES   REMARKS
GREELEY ARPT   CLEAR     43  36  75 N3        30.13F
AKRON          CLEAR     51  49  92 MISG      30.10S
BURLINGTON     CLEAR     55  52  89 S3        30.08S
WRAY             N/A    N/A N/A N/A CALM      30.06S
STERLING       CLEAR     50  48  93 CALM      30.08R
HOLYOKE        CLEAR     52  48  87 W5        30.06S
FORT MORGAN    CLEAR     47  44  87 NW8       30.12S
$$

COZ086-089-092>099-021200-
...SOUTHEAST COLORADO...

CITY           SKY/WX    TMP DP  RH WIND       PRES   REMARKS
PUEBLO         CLOUDY    65  53  65 N3        30.10R
LA JUNTA       CLEAR     64  61  90 SW8       30.05S
LAMAR          CLEAR     61  57  87 N5        30.02S
SPRINGFIELD      N/A     63  62  97 CALM      30.05F
$$



USA.gov is the U.S. government's official web portal to all federal, state and local government web resources and services.